KKYDRYRI2 Weather Reports


Display with metric or nautical units.
time (UTC)temp
F
wind
direction
speed
MPH
gust
MPH
rain 1hr
in
rain 24hr
in
rain mn
in
humidity
%
barometer
mb
20260903001059 84 92 1.0 1.0 0.00 0.00 0.00 87 1016.2
20260903000105 84 92 0.0 1.0 0.00 0.00 0.00 85 1016.2
20260902235045 85 92 0.0 3.0 0.00 0.00 0.00 83 1016.1
20260902234011 87 92 0.0 3.0 0.00 0.00 0.00 80 1016.2
20260902233000 89 46 0.0 1.0 0.00 0.00 0.00 77 1016.2
20260902231925 91 46 0.0 1.0 0.00 0.00 0.00 72 1016.2
20260902230939 93 46 0.0 1.0 0.00 0.00 0.00 68 1016.3
20260902224802 96 46 0.0 2.0 0.00 0.00 0.00 61 1016.3
20260902221450 95 335 1.0 4.0 0.00 0.00 0.00 57 1016.4
20260902220445 96 15 0.0 4.0 0.00 0.00 0.00 57 1016.4
20260902215445 96 108 1.0 4.0 0.00 0.00 0.00 57 1016.6
20260902214457 96 32 0.0 3.0 0.00 0.00 0.00 57 1016.4
20260902213455 96 152 2.0 4.0 0.00 0.00 0.00 57 1016.6
20260902212421 96 130 1.0 4.0 0.00 0.00 0.00 58 1016.6
20260902211403 95 19 2.0 7.0 0.00 0.00 0.00 58 1016.6
20260902210421 95 355 1.0 7.0 0.00 0.00 0.00 57 1016.5
20260902205446 95 24 2.0 7.0 0.00 0.00 0.00 57 1016.7
20260902204501 95 108 2.0 6.0 0.00 0.00 0.00 57 1016.8
20260902203525 95 114 2.0 5.0 0.00 0.00 0.00 57 1016.8
20260902202455 95 157 1.0 7.0 0.00 0.00 0.00 57 1016.8
20260902201440 95 0 2.0 7.0 0.00 0.00 0.00 58 1016.9
20260902195243 95 42 1.0 6.0 0.00 0.00 0.00 59 1017.2
20260902194255 96 127 1.0 5.0 0.00 0.00 0.00 57 1017.4
20260902193235 95 49 2.0 10.0 0.00 0.00 0.00 58 1017.3
20260902191027 94 59 3.0 9.0 0.00 0.00 0.00 61 1017.6
20260902190032 94 17 2.0 8.0 0.00 0.00 0.00 60 1017.7
20260902185029 94 159 1.0 5.0 0.00 0.00 0.00 61 1017.8
20260902184052 94 50 2.0 6.0 0.00 0.00 0.00 61 1017.9
20260902183046 94 111 2.0 7.0 0.00 0.00 0.00 61 1018.0
20260902180941 94 131 1.0 8.0 0.00 0.00 0.00 60 1018.0
20260902175913 94 143 1.0 8.0 0.00 0.00 0.00 61 1018.0
20260902174843 93 109 2.0 8.0 0.00 0.00 0.00 62 1018.1
20260902173834 93 355 1.0 5.0 0.00 0.00 0.00 63 1018.2
20260902171656 93 351 1.0 8.0 0.00 0.00 0.00 63 1018.6
20260902170708 93 151 1.0 8.0 0.00 0.00 0.00 64 1018.6
20260902165715 92 51 1.0 8.0 0.00 0.00 0.00 65 1018.7
20260902164730 91 55 2.0 8.0 0.00 0.00 0.00 67 1018.8
20260902163702 91 347 1.0 7.0 0.00 0.00 0.00 67 1019.0
20260902162716 91 19 1.0 6.0 0.00 0.00 0.00 67 1019.1
20260902160534 90 40 1.0 7.0 0.00 0.00 0.00 71 1019.3
20260902155549 89 121 1.0 7.0 0.00 0.00 0.00 70 1019.3
20260902154536 89 23 1.0 6.0 0.00 0.00 0.00 72 1019.4
20260902152359 87 135 1.0 3.0 0.00 0.00 0.00 74 1019.2
20260902151338 87 148 0.0 4.0 0.00 0.00 0.00 75 1019.1
20260902150317 87 97 1.0 6.0 0.00 0.00 0.00 75 1019.3
20260902145252 86 92 1.0 6.0 0.00 0.00 0.00 76 1019.4
20260902144234 85 142 0.0 3.0 0.00 0.00 0.00 78 1019.4
20260902143253 85 46 1.0 3.0 0.00 0.00 0.00 79 1019.3
20260902141153 83 67 0.0 5.0 0.00 0.00 0.00 81 1019.2
20260902140157 83 51 1.0 5.0 0.00 0.00 0.00 83 1019.2
20260902135127 82 34 1.0 3.0 0.00 0.00 0.00 84 1019.3
20260902134152 81 80 0.0 3.0 0.00 0.00 0.00 86 1019.4
20260902133155 80 40 1.0 3.0 0.00 0.00 0.00 88 1019.4
20260902132203 79 44 0.0 3.0 0.00 0.00 0.00 90 1019.5
20260902131221 78 42 0.0 3.0 0.00 0.00 0.00 92 1019.4
20260902125057 75 44 0.0 1.0 0.00 0.00 0.00 99 1019.3
20260902122952 74 76 0.0 0.0 0.00 0.00 0.00 99 1019.0
20260902121940 73 76 0.0 0.0 0.00 0.00 0.00 99 1019.0
20260902120957 73 76 0.0 0.0 0.00 0.00 0.00 99 1019.0
20260902115933 73 76 0.0 0.0 0.00 0.00 0.00 99 1019.0
20260902113838 73 76 0.0 0.0 0.00 0.00 0.00 99 1018.9
20260902112809 73 76 0.0 0.0 0.00 0.00 0.00 99 1018.6
20260902111820 72 76 0.0 0.0 0.00 0.00 0.00 99 1018.6
20260902110817 73 76 0.0 0.0 0.00 0.00 0.00 99 1018.5
20260902105742 72 76 0.0 0.0 0.00 0.00 0.00 98 1018.3
20260902104712 73 76 0.0 0.0 0.00 0.00 0.00 98 1018.3
20260902103703 72 76 0.0 0.0 0.00 0.00 0.00 98 1018.4
20260902102712 73 76 0.0 0.0 0.00 0.00 0.00 98 1018.3
20260902101715 73 76 0.0 0.0 0.00 0.00 0.00 98 1018.2
20260902100731 73 76 0.0 0.0 0.00 0.00 0.00 98 1018.2
20260902095754 73 76 0.0 0.0 0.00 0.00 0.00 98 1018.2
20260902093604 73 76 0.0 0.0 0.00 0.00 0.00 98 1018.1
20260902092558 73 76 0.0 0.0 0.00 0.00 0.00 98 1018.2
20260902085219 73 76 0.0 0.0 0.00 0.00 0.00 98 1018.0
20260902083123 73 76 0.0 0.0 0.00 0.00 0.00 98 1017.7
20260902082059 73 76 0.0 0.0 0.00 0.00 0.00 98 1017.7
20260902081043 73 76 0.0 0.0 0.00 0.00 0.00 98 1017.6
20260902075039 73 76 0.0 0.0 0.00 0.00 0.00 98 1017.5
20260902074005 74 76 0.0 0.0 0.00 0.00 0.00 98 1017.6
20260902073023 74 76 0.0 0.0 0.00 0.00 0.00 98 1017.5
20260902072042 74 76 0.0 0.0 0.00 0.00 0.00 98 1017.5
20260902065922 74 76 0.0 0.0 0.00 0.00 0.00 98 1017.4
20260902064915 74 76 0.0 0.0 0.00 0.00 0.00 98 1017.5
20260902063912 74 76 0.0 0.0 0.00 0.00 0.00 98 1017.4
20260902062840 74 76 0.0 0.0 0.00 0.00 0.00 97 1017.5
20260902061807 74 76 0.0 0.0 0.00 0.00 0.00 97 1017.5
20260902060823 74 76 0.0 0.0 0.00 0.00 0.00 97 1017.7
20260902055812 74 76 0.0 0.0 0.00 0.00 0.00 97 1017.7
20260902054743 74 76 0.0 0.0 0.00 0.00 0.00 97 1017.7
20260902053756 75 76 0.0 0.0 0.00 0.00 0.00 97 1017.7
20260902052746 75 76 0.0 0.0 0.00 0.00 0.00 97 1017.6
20260902051727 75 76 0.0 0.0 0.00 0.00 0.00 97 1017.7
20260902050728 75 76 0.0 0.0 0.00 0.00 0.00 97 1017.8
20260902045747 75 76 0.0 0.0 0.00 0.00 0.00 97 1017.7
20260902043643 75 76 0.0 0.0 0.00 0.00 0.00 97 1017.6
20260902042659 75 76 0.0 0.0 0.00 0.00 0.00 96 1017.6
20260902041632 75 76 0.0 0.0 0.00 0.00 0.00 96 1017.6
20260902040641 76 76 0.0 0.0 0.00 0.00 0.00 96 1017.5
20260902035616 76 76 0.0 0.0 0.00 0.00 0.00 96 1017.6
20260902034636 76 76 0.0 0.0 0.00 0.00 0.00 96 1017.6
20260902033619 76 76 0.0 0.0 0.00 0.00 0.00 96 1017.5
20260902032640 76 76 0.0 0.0 0.00 0.00 0.00 96 1017.6
20260902031634 76 76 0.0 0.0 0.00 0.00 0.00 95 1017.6
20260902024427 77 76 0.0 0.0 0.00 0.00 0.00 95 1017.7
20260902023409 77 76 0.0 1.0 0.00 0.00 0.00 94 1017.7
20260902022402 77 76 0.0 0.0 0.00 0.00 0.00 94 1017.7
20260902021417 77 76 0.0 1.0 0.00 0.00 0.00 94 1017.7
20260902015259 78 76 0.0 1.0 0.00 0.00 0.00 93 1017.5
20260902014254 78 76 0.0 1.0 0.00 0.00 0.00 93 1017.4
20260902013236 78 76 0.0 1.0 0.00 0.00 0.00 92 1017.4
20260902010004 79 76 0.0 1.0 0.00 0.00 0.00 91 1017.2
20260902005016 80 76 0.0 1.0 0.00 0.00 0.00 90 1017.1
20260902003952 80 76 0.0 1.0 0.00 0.00 0.00 89 1017.0
20260902003016 81 76 0.0 1.0 0.00 0.00 0.00 89 1016.9
20260902002022 81 76 0.0 2.0 0.00 0.00 0.00 87 1017.0